Flag for Germany Weather past 2 weeks in Dülmen, North Rhine-Westphalia, Germany

Now
36 °F

Scattered showers. Passing clouds.


Feels Like: 27 °F
Forecast: 30 / 36 °F
Wind: 13 mph from Southwest

Location: Dortmund / Wickede

Current Time: Jan 29, 2015 at 6:12:54 PM

Latest Report: Jan 29, 2015 at 5:50 PM


Visibility: N/A

Pressure: 28.88 "Hg

Humidity: 81%

Dew point: 30 °F

Location of DülmenLocation

Historic Weather in Dülmen — Graph

°F

Dülmen temperature yesterday

Maximum temperature yesterday: 43 °F (at 1:50 PM)
Minimum temperature yesterday: 36 °F (at 7:50 PM)
Average temperature yesterday: 39 °F

Past Weeks' High & Low Weather Summary

 TemperatureHumidityPressure
High50 °F (Jan 15, 12:50 PM)93% (Jan 17, 7:20 AM)30.39 "Hg (Jan 17, 7:20 AM)
Low27 °F (Jan 21, 8:20 AM)60% (Jan 21, 12:20 PM)28.91 "Hg (Jan 29, 4:50 PM)
Average36 °F81%29.92 "Hg
* Reported Jan 14 4:20 PM — Jan 29 4:50 PM, Dülmen, Weather by CustomWeather, © 2014

Note: Actual official high and low records may vary slightly from our data, if they occured in-between our weather recording intervals... More about our weather records

Advertising

Dülmen weather history for previous 24 hours

 ConditionsComfort  
Time TempWeatherWind HumidityBarometerVisibility
4:50 PM
Jan 29
36 °FScattered showers. Scattered clouds.8 mph87%28.91 "HgN/A
4:20 PM36 °FScattered showers. Partly sunny.9 mph87%28.94 "HgN/A
3:50 PM34 °FScattered showers. Broken clouds.13 mph87%28.97 "HgN/A
3:20 PM37 °FScattered showers. Partly sunny.12 mph81%29.00 "HgN/A
2:50 PM37 °FScattered showers. Partly sunny.20 mph70%29.00 "HgN/A
2:20 PM37 °FScattered clouds.18 mph75%29.03 "HgN/A
1:50 PM36 °FSprinkles. Partly sunny.13 mph81%29.06 "HgN/A
1:20 PM39 °FScattered clouds.24 mph65%29.09 "HgN/A
12:50 PM37 °FScattered clouds.23 mph70%29.09 "HgN/A
12:20 PM37 °FScattered clouds.21 mph70%29.12 "HgN/A
11:50 AM37 °FScattered clouds.21 mph70%29.15 "HgN/A
11:20 AM37 °FScattered clouds.23 mph70%29.15 "HgN/A
10:50 AM37 °FScattered clouds.21 mph70%29.18 "HgN/A
10:20 AM36 °FScattered clouds.21 mph75%29.21 "HgN/A
9:50 AM36 °FScattered clouds.23 mph75%29.21 "HgN/A
9:20 AM36 °FScattered clouds.21 mph75%29.21 "HgN/A
8:50 AM36 °FScattered clouds.24 mph75%29.24 "HgN/A
8:20 AM36 °FScattered clouds.24 mph75%29.24 "HgN/A
7:50 AM36 °FPassing clouds.22 mph75%29.27 "HgN/A
7:20 AM36 °FPassing clouds.22 mph75%29.27 "HgN/A
6:50 AM36 °FPassing clouds.21 mph70%29.27 "HgN/A
6:20 AM36 °FPassing clouds.22 mph70%29.30 "HgN/A
5:50 AM36 °FPassing clouds.20 mph70%29.30 "HgN/A
5:20 AM34 °FPassing clouds.21 mph75%29.33 "HgN/A
10:50 PM
Jan 28
36 °FClear.18 mph81%29.42 "Hg10 mi
10:20 PM36 °FClear.18 mph81%29.42 "Hg10 mi
9:50 PM36 °FClear.18 mph87%29.42 "Hg10 mi
9:20 PM36 °FPassing clouds.16 mph87%29.42 "HgN/A
8:50 PM36 °FPassing clouds.18 mph87%29.42 "HgN/A
8:20 PM36 °FPassing clouds.17 mph87%29.42 "HgN/A
7:50 PM36 °FSprinkles. Passing clouds.15 mph87%29.42 "HgN/A
7:20 PM37 °FLight rain. Passing clouds.22 mph81%29.42 "HgN/A
6:50 PM41 °FThundershowers. Passing clouds.23 mph81%29.36 "Hg3 mi
6:20 PM39 °FLight rain. Passing clouds.22 mph87%29.36 "HgN/A
Weather by CustomWeather, © 2014

See weather overviewHow to use our weather pages